Weather Roundup
Issued by NWS Corpus Christi, TX

Home | Current Version | Previous Version | Text Only | Print | Product List | Glossary On
Versions: 1 2 3 4 5 6 7 8 9 10 11 12 13 14 15 16 17 18 19 20 21 22 23 24 25 26 27 28 29 30 31 32 33 34 35 36 37 38 39 40 41 42 43 44 45 46 47 48 49 50
000
ASUS44 KCRP 142110
HRRCRP

SOUTH TEXAS REGIONAL WEATHER ROUNDUP
NATIONAL WEATHER SERVICE CORPUS CHRISTI TX
300 PM CST THU DEC 14 2017


TXZ229>244-142200-
...CORPUS CHRISTI AREA OBSERVATIONS...

CITY           SKY/WX    TMP DP  RH WIND       PRES   REMARKS
CORPUS CHRISTI CLOUDY    65  59  81 E6        29.93R
NAS CORPUS CHR CLOUDY    67  60  78 NE7       29.93R
ROCKPORT       CLOUDY    65  55  70 E6        29.94S
KINGSVILLE ARP FAIR      69  56  64 CALM      29.93S
KINGSVILLE NAS CLOUDY    69  56  62 W3        29.93R
ALICE          CLOUDY    68  52  56 E3        29.93R
$$

...VICTORIA AREA OBSERVATIONS...

CITY           SKY/WX    TMP DP  RH WIND       PRES   REMARKS
PORT LAVACA    NOT AVBL
VICTORIA       MOSUNNY   67  44  43 NE5       29.95S
BEEVILLE       FAIR      68  52  58 CALM      29.94S
PLEASANTON     CLOUDY    64  37  37 N3        29.97R
SAN ANTONIO    PTSUNNY   62  38  40 NE7       29.98S
$$

...LAREDO AREA OBSERVATIONS...

CITY           SKY/WX    TMP DP  RH WIND       PRES   REMARKS
LAREDO         LGT RAIN  61  49  64 MISG        N/A
COTULLA        PTSUNNY   65  40  39 N6        29.95S
DEL RIO        CLOUDY    61  44  53 NW8       29.97S
MCALLEN        CLOUDY    66  53  63 NW5       29.92F
HEBBRONVILLE   CLOUDY    67  46  46 CALM      29.95R
$$

...OTHER TEXAS OBSERVATIONS...

CITY           SKY/WX    TMP DP  RH WIND       PRES   REMARKS
BROWNSVILLE    MOSUNNY   77  59  53 S13       29.90F
HOUSTON        CLOUDY    64  38  38 W5        29.96R
COL. STATION   PTSUNNY   63  40  42 N3        29.97R
AUSTIN         CLOUDY    63  32  31 NE13      29.97S
WACO           CLOUDY    63  29  27 N17       30.00R
FORT WORTH     MOSUNNY   61  27  27 N17G24    30.03R
WICHITA FALLS  MOSUNNY   55  26  32 N16       30.12R
LUBBOCK        SUNNY     51  21  30 NE16      30.13S
EL PASO        FAIR      63  28  26 N6        29.99F
$$

...MARINE OBSERVATIONS...

STATION/POSITION TIME  SKY/WX   TEMP    WIND        PRES    VSBY  WAVE   SWELL
                                AIR SEA DIR/SP/G                  HT/PER HT/PER
                 (UTC)          (F)     (DEG/KT/KT) (MB)    (MI)  (FT/S) (FT/S)
PORT ARANSAS     NOT AVBL
BUOY 90 E PORT A 1950            69 71   40/ 10/ 12 1013.2          1/ 4
BUOY 200 E PT IS 1950            75 77  210/ 12/ 14 1014.1          2/ 4
BUOY 15 E GALVES 1950            61 61  120/  4/  4 1014.5          1
$$




USA.gov is the U.S. government's official web portal to all federal, state and local government web resources and services.